CAPE
0 0 0 0 0 0 0 0 0 0 0 0 0 0 0 0 0 2 1 0 0 0 1 0 0 0 0 0 0 0 0 0 0 4 2 2 2 1 1 0 0 0 0
0 0 0 0 0 0 0 0 0 0 0 0 0 0 0 1 0 1 0 1 1 0 1 0 0 0 0 0 0 0 0 0 2 0 3 2 3 2 1 0 0 0 0
0 0 0 0 0 0 0 0 0 0 0 0 0 0 0 1 2 2 0 0 0 1 1 0 0 0 0 0 0 0 0 0 1 4 4 3 3 1 2 0 0 0 0
0 0 0 0 0 0 0 0 0 0 0 0 0 0 0 0 2 1 0 0 0 0 0 1 0 0 0 0 0 0 0 3 2 4 5 5 4 3 3 2 1 1 0
0 0 0 0 0 0 0 0 0 0 0 0 0 0 0 0 0 3 0 0 0 0 0 0 0 0 0 0 0 0 0 2 1 4 7 6 4 3 1 3 4 1 1
0 0 0 0 0 0 0 0 0 0 0 0 0 0 0 0 0 0 0 0 0 0 0 0 0 0 0 0 0 0 0 0 4 5 4 0 1 4 3 4 5 5 3
0 0 0 0 0 0 0 0 0 0 0 0 0 0 0 0 0 0 0 0 0 0 0 0 0 0 0 0 0 0 0 0 0 0 0 0 0 1 3 5 4 1 0
0 0 0 0 0 0 0 0 0 0 0 0 0 1 0 0 0 0 0 0 0 1 1 0 0 0 0 0 0 0 0 0 0 0 0 0 0 0 0 0 2 0 0
0 0 0 0 0 0 0 0 0 0 0 0 0 1 1 0 0 0 0 0 0 1 0 0 0 0 0 0 0 0 0 0 0 0 0 0 0 0 0 0 0 0 1
0 0 0 0 0 0 0 0 0 0 0 0 0 0 0 0 0 0 0 0 0 0 0 0 0 0 0 0 0 0 0 0 0 0 0 0 0 0 0 0 0 0 0
0 0 0 0 0 0 0 0 0 0 0 0 0 0 0 0 0 1 0 0 0 0 0 0 0 0 0 0 0 0 0 0 0 0 0 0 2 2 2 0 0 0 0
0 0 0 0 0 0 0 0 0 0 0 0 0 0 0 0 0 1 0 0 0 0 0 0 0 0 0 0 0 0 0 0 0 0 0 0 1 3 4 2 0 0 0
0 0 0 0 0 0 0 0 0 0 0 0 0 0 0 0 0 0 0 0 0 0 0 0 0 0 0 0 0 2 1 0 0 0 0 0 2 4 3 2 0 0 0
0 0 0 0 0 0 0 0 0 0 0 1 0 0 0 0 0 0 0 1 0 0 0 0 0 0 0 0 2 0 1 0 0 0 0 2 3 1 2 3 3 0 2
0 0 0 0 0 0 0 0 0 0 0 0 0 0 0 0 0 1 1 1 1 0 0 0 0 1 1 1 1 1 1 0 0 1 1 2 2 2 3 3 4 4 4
0 0 0 0 0 0 0 0 0 0 0 1 2 1 0 1 1 1 1 0 0 0 1 0 0 0 0 0 1 0 3 1 1 1 1 1 4 5 3 4 3 5 5
0 0 0 0 0 0 0 0 0 1 0 0 0 0 0 0 0 2 1 1 1 2 1 0 0 0 0 0 1 1 2 5 2 1 1 1 2 5 3 4 5 5 5
0 0 0 0 0 0 0 0 0 1 0 0 0 0 0 0 0 0 1 1 0 2 1 1 1 1 0 1 1 0 0 0 0 1 1 1 2 2 3 4 4 5 6
0 0 0 0 0 0 0 0 0 0 0 0 0 0 0 0 0 0 0 1 1 1 1 1 1 1 1 1 1 1 1 0 0 0 1 1 1 1 3 3 3 3 3
0 0 0 0 0 0 0 0 0 0 0 0 0 0 0 0 0 0 0 0 0 1 1 1 1 0 1 1 1 1 1 1 1 1 1 1 1 1 1 1 2 2 3
0 0 0 0 0 0 0 0 0 1 0 0 0 0 0 0 0 0 0 0 1 1 1 1 0 0 0 0 1 1 1 1 1 0 1 1 1 1 1 1 1 1 1
0 0 0 0 0 0 1 0 0 0 0 0 0 0 0 0 0 0 0 0 0 0 0 0 0 0 0 0 0 1 1 1 1 0 0 0 0 0 0 1 1 1 1
0 0 0 0 0 0 0 0 0 0 0 0 0 0 0 0 0 0 0 0 0 0 0 0 0 0 0 0 0 0 0 1 1 1 1 1 0 0 0 0 0 1 0
0 0 0 0 0 0 0 0 0 0 0 0 0 0 0 0 0 0 0 0 0 0 0 0 0 0 0 0 0 0 0 0 0 0 0 1 1 1 0 0 0 0 0
0 0 0 0 0 0 0 0 0 0 0 0 0 0 0 0 0 0 0 0 0 0 0 0 0 0 0 0 0 0 0 0 0 0 0 0 0 1 1 1 1 1 0
0 0 0 0 0 0 0 0 0 0 0 0 0 0 0 0 0 0 0 0 0 0 0 0 0 0 0 0 0 0 0 0 0 0 1 1 0 0 1 1 1 1 1
CIN
-0 -0 -0 -0 -0 -0 -0 -0 -0 -0 -0 -0 -0 -0 -0 -0 -0 -0 -0 -0 -0 -0 -0 -0 -0 -0 -0 -0 -0 -0 -0 -0 -0 -0 -0 -0 -0 -0 -0 -0 -0 -0 -0
-0 -0 -0 -0 -0 -0 -0 -0 -0 -0 -0 -0 -0 -0 -0 -0 -0 -0 -0 -0 -0 -0 -0 -0 -0 -0 -0 -0 -0 -0 -0 -0 -0 -0 -0 -0 -0 -0 -0 -0 -0 -0 -0
-0 -0 -0 -0 -0 -0 -0 -0 -0 -0 -0 -0 -0 -0 -0 -0 -0 -0 -0 -0 -0 -0 -0 -0 -0 -0 -0 -0 -0 -0 -0 -0 -0 -0 -0 -0 -0 -0 -0 -0 -0 -0 -0
-0 -0 -0 -0 -0 -0 -0 -0 -0 -0 -0 -0 -0 -0 -0 -0 -4 -2 -0 -0 -0 -0 -0 -0 -0 -0 -0 -0 -0 -0 -0 -0 -0 -0 -0 -0 -0 -0 -0 -0 -0 -0 -0
-0 -0 -0 -0 -0 -0 -0 -0 -0 -0 -0 -0 -0 -0 -0 -0 -4 -5 -1 -0 -0 -0 -0 -0 -0 -0 -0 -0 -0 -0 -0 -0 -0 -0 -0 -0 -0 -0 -0 -0 -0 -0 -0
-0 -0 -0 -0 -0 -0 -0 -0 -0 -0 -0 -0 -0 -0 -0 -0 -0 -0 -0 -7 -3 -0 -0 -0 -0 -0 -0 -0 -0 -0 -0 -0 -0 -0 -0 -0 -0 -0 -0 -0 -0 -0 -0
-0 -0 -0 -0 -0 -0 -0 -0 -0 -0 -0 -0 -0 -0 -0 -0 -0 -0 -0 -0 -0 -0 -0 -0 -0 -0 -0 -0 -0 -0 -0 -0 -0 -0 -0 -0 -0 -0 -0 -0 -0 -0 -0
-0 -0 -0 -0 -0 -0 -0 -0 -0 -0 -0 -0 -0 -0 -0 -0 -0 -0 -0 -0 -0 -0 -0 -0 -0 -0 -0 -0 -0 -0 -0 -0 -0 -0 -0 -0 -0 -0 -0 -0 -0 -0 -0
-0 -0 -0 -0 -0 -0 -0 -0 -0 -0 -0 -0 -0 -0 -0 -0 -0 -0 -0 -0 -0 -0 -0 -0 -0 -0 -0 -0 -0 -0 -0 -0 -0 -0 -0 -0 -0 -0 -0 -0 -0 -0 -0
-0 -0 -0 -0 -0 -0 -0 -0 -0 -0 -0 -0 -0 -0 -0 -0 -0 -0 -0 -0 -0 -0 -0 -0 -0 -0 -0 -0 -0 -0 -0 -0 -0 -0 -0 -0 -0 -0 -0 -0 -0 -0 -0
-0 -0 -0 -0 -0 -0 -0 -0 -0 -0 -0 -0 -0 -0 -0 -0 -0 -0 -0 -0 -0 -0 -0 -0 -0 -0 -0 -0 -0 -0 -0 -0 -0 -0 -0 -0 -0 -0 -0 -0 -0 -0 -0
-0 -0 -0 -0 -0 -0 -0 -0 -0 -0 -0 -0 -0 -0 -0 -0 -0 -0 -0 -0 -0 -0 -0 -0 -0 -0 -0 -0 -0 -0 -0 -0 -0 -0 -0 -0 -0 -0 -0 -0 -0 -0 -0
-0 -0 -0 -0 -0 -0 -0 -0 -0 -0 -0 -0 -0 -0 -0 -0 -0 -0 -0 -0 -0 -0 -0 -0 -0 -0 -0 -0 -0 -0 -0 -0 -0 -0 -0 -0 -0 -0 -0 -0 -0 -0 -0
-0 -0 -0 -0 -0 -0 -0 -0 -0 -0 -0 -0 -0 -0 -0 -0 -0 -0 -0 -0 -0 -0 -0 -0 -0 -0 -0 -0 -0 -0 -0 -0 -0 -0 -0 -0 -0 -0 -0 -0 -0 -0 -0
-0 -0 -0 -0 -0 -0 -0 -0 -0 -0 -0 -0 -0 -0 -0 -0 -0 -0 -0 -0 -0 -0 -0 -0 -0 -0 -0 -0 -0 -0 -0 -0 -0 -0 -0 -0 -0 -0 -0 -0 -0 -0 -0
-0 -0 -0 -0 -0 -0 -0 -0 -0 -0 -0 -0 -0 -0 -0 -0 -0 -0 -0 -0 -0 -0 -0 -0 -0 -0 -0 -0 -0 -0 -0 -0 -0 -0 -0 -0 -0 -0 -0 -0 -0 -0 -0
-0 -0 -0 -0 -0 -0 -0 -0 -0 -0 -0 -0 -0 -0 -0 -0 -0 -0 -0 -0 -0 -0 -0 -0 -0 -0 -0 -0 -0 -0 -0 -0 -0 -0 -0 -0 -0 -0 -0 -0 -0 -0 -0
-0 -0 -0 -0 -0 -0 -0 -0 -0 -0 -0 -0 -0 -0 -0 -0 -0 -0 -0 -0 -0 -0 -0 -0 -0 -0 -0 -0 -0 -0 -0 -0 -0 -0 -0 -0 -0 -0 -0 -0 -0 -0 -0
-0 -0 -0 -0 -0 -0 -0 -0 -0 -0 -0 -0 -0 -0 -0 -0 -0 -0 -0 -0 -0 -0 -0 -0 -0 -0 -0 -0 -0 -0 -0 -0 -0 -0 -0 -0 -0 -0 -0 -0 -0 -0 -0
-0 -0 -0 -0 -0 -0 -0 -0 -0 -0 -0 -0 -0 -0 -0 -0 -0 -0 -0 -0 -0 -0 -0 -0 -0 -0 -0 -0 -0 -0 -0 -0 -0 -0 -0 -0 -0 -0 -0 -0 -0 -0 -0
-0 -0 -0 -0 -0 -0 -0 -0 -0 -0 -0 -0 -0 -0 -0 -0 -0 -0 -0 -0 -0 -0 -0 -0 -0 -0 -0 -0 -0 -0 -0 -0 -0 -0 -0 -0 -0 -0 -0 -0 -0 -0 -0
-0 -0 -0 -0 -0 -0 -0 -0 -0 -0 -0 -0 -0 -0 -0 -0 -0 -0 -0 -0 -0 -0 -0 -0 -0 -0 -0 -0 -0 -0 -0 -0 -0 -0 -0 -0 -0 -0 -0 -0 -0 -0 -0
-0 -0 -0 -0 -0 -0 -0 -0 -0 -0 -0 -0 -0 -0 -0 -0 -0 -0 -0 -0 -0 -0 -0 -0 -0 -0 -0 -0 -0 -0 -0 -0 -0 -0 -0 -0 -0 -0 -0 -0 -0 -0 -0
-0 -0 -0 -0 -0 -0 -0 -0 -0 -0 -0 -0 -0 -0 -0 -0 -0 -0 -0 -0 -0 -0 -0 -0 -0 -0 -0 -0 -0 -0 -0 -0 -0 -0 -0 -0 -0 -0 -0 -0 -0 -0 -0
-0 -0 -0 -0 -0 -0 -0 -0 -0 -0 -0 -0 -0 -0 -0 -0 -0 -0 -0 -0 -0 -0 -0 -0 -0 -0 -0 -0 -0 -0 -0 -0 -0 -0 -0 -0 -0 -0 -0 -0 -0 -0 -0
-0 -0 -0 -0 -0 -0 -0 -0 -0 -0 -0 -0 -0 -0 -0 -0 -0 -0 -0 -0 -0 -0 -0 -0 -0 -0 -0 -0 -0 -0 -0 -0 -0 -0 -0 -0 -0 -0 -0 -0 -0 -0 -0
Wind_Speed
6 4 4 4 4 5 6 7 8 9 9 10 11 13 15 16 15 16 15 15 14 14 13 12 11 8 6 5 5 6 7 9 14 6 6 7 2 0 1 3 7 10 12
7 6 5 4 4 4 6 6 7 8 8 9 10 12 13 15 14 14 14 14 12 12 11 9 7 7 7 4 4 5 6 6 13 16 6 3 3 4 4 5 7 10 10
8 7 6 5 4 4 5 5 6 7 8 9 10 11 11 13 13 12 12 12 12 10 10 8 7 5 5 4 4 4 3 5 7 10 6 1 5 4 4 6 8 9 10
9 8 8 6 5 5 5 5 6 6 8 9 9 9 9 11 11 10 10 10 10 9 8 7 4 3 2 2 2 3 4 5 6 7 3 2 1 4 5 4 7 10 12
10 10 9 7 6 7 7 6 7 7 8 9 9 8 8 9 9 8 8 8 9 8 7 6 5 4 2 2 1 0 3 5 7 9 4 3 3 2 1 6 7 9 13
11 11 9 9 8 8 7 7 7 9 9 9 8 7 7 7 7 6 7 6 7 8 7 7 6 5 2 1 3 3 4 8 8 7 5 6 4 3 4 3 4 7 12
12 11 11 10 10 9 7 7 9 10 9 8 8 7 7 6 5 5 5 7 7 9 8 6 7 8 6 4 2 3 4 5 7 7 9 7 4 6 3 4 7 9 14
13 12 11 10 9 8 8 9 11 11 9 9 8 8 9 8 5 5 6 6 8 10 9 8 6 5 7 6 3 3 5 6 6 6 7 7 8 4 3 6 7 10 12
13 12 11 9 9 9 10 12 12 11 11 10 10 8 8 9 8 7 7 7 9 11 11 9 7 5 4 6 5 5 5 7 8 7 9 6 5 5 6 4 6 7 12
13 12 11 11 10 11 13 12 13 13 11 10 10 9 9 10 10 9 10 11 10 13 14 12 5 7 5 6 7 7 7 8 7 9 10 8 4 4 8 8 7 5 11
12 12 11 10 10 12 12 12 11 11 10 10 9 10 10 9 8 9 12 13 13 15 18 16 8 5 4 7 8 9 9 10 10 11 11 9 5 3 6 7 7 6 6
11 10 9 9 11 11 10 11 10 10 9 9 9 10 10 9 8 10 11 14 17 17 19 19 12 8 7 8 8 9 10 12 11 10 10 7 4 3 4 5 6 10 14
9 8 7 8 10 10 9 9 9 8 8 8 9 10 10 11 12 10 11 13 16 18 23 22 15 11 9 7 8 9 10 11 10 11 8 7 5 7 7 7 12 15 19
7 6 6 7 8 9 9 9 8 7 8 8 9 9 11 12 12 13 12 12 16 18 23 22 18 17 15 12 13 9 10 12 11 12 12 15 15 10 7 8 11 8 12
6 5 5 6 6 7 9 10 9 10 9 7 9 10 11 12 14 16 14 14 16 17 18 18 17 17 15 10 11 12 15 16 17 17 15 12 10 9 8 9 11 8 7
5 3 3 3 5 7 9 10 11 10 10 10 11 13 15 16 17 17 17 16 16 14 16 19 19 14 13 10 13 9 15 17 18 18 17 20 18 14 12 10 12 8 8
4 2 3 5 6 9 9 9 11 11 12 12 15 17 17 19 19 18 17 16 15 13 16 18 20 19 19 22 20 16 17 17 20 21 21 23 23 22 18 18 16 15 14
3 3 5 7 9 10 11 12 11 10 11 13 16 17 19 21 21 20 17 15 15 15 16 17 20 21 21 22 21 21 19 20 21 23 25 27 27 25 24 22 18 17 16
3 5 7 8 10 10 11 12 12 13 13 14 16 18 20 19 18 18 17 18 18 19 20 20 19 21 23 23 23 22 24 24 23 25 27 27 26 25 28 28 28 24 22
5 6 8 9 10 11 12 12 12 13 13 14 17 19 21 20 19 19 18 18 19 20 21 21 22 22 25 25 23 24 23 24 25 27 25 26 28 29 33 31 31 32 31
5 7 8 9 11 12 12 13 13 13 14 15 17 19 20 20 21 20 20 19 19 20 20 21 22 22 23 26 25 25 26 25 24 23 27 28 28 30 30 30 30 30 30
7 8 9 10 11 12 13 13 14 14 14 16 18 19 20 20 20 20 20 21 21 22 21 22 22 23 24 25 26 26 27 27 26 26 27 26 28 31 30 29 32 32 31
7 8 10 12 12 12 13 13 14 14 16 17 19 20 21 21 21 21 22 22 23 24 25 24 24 25 25 25 25 26 27 27 27 26 27 28 29 28 28 31 30 32 32
8 9 10 11 12 13 14 14 15 16 17 18 19 20 22 22 23 23 24 24 24 25 25 25 26 26 27 27 28 28 27 27 27 27 28 28 29 30 30 30 31 31 33
9 10 11 12 13 13 14 15 16 17 18 19 20 21 22 23 23 24 24 24 25 26 26 27 26 27 27 28 29 28 29 29 29 29 29 29 29 30 32 32 32 31 30
10 12 13 13 14 15 15 16 17 18 19 20 21 22 23 23 24 24 25 26 26 27 27 27 27 28 29 29 27 29 30 30 30 30 29 30 30 29 29 31 32 33 32
Wind_Direction
250 269 295 325 359 7 5 23 37 39 36 29 27 24 24 28 30 35 43 56 77 77 73 76 68 63 65 66 19 27 80 102 108 118 221 224 234 146 318 333 4 8 19
253 265 280 305 333 348 353 13 33 29 26 17 16 12 20 22 30 37 38 44 59 72 65 66 56 67 70 42 29 49 91 118 123 124 116 232 260 268 293 324 331 349 356
251 260 273 286 305 325 341 1 18 17 13 5 5 3 18 24 34 39 36 41 44 57 62 62 70 74 65 65 54 62 84 127 140 139 123 267 273 290 331 335 345 349 346
250 257 264 270 289 310 327 342 355 358 350 347 353 3 16 18 28 37 30 31 34 38 36 30 47 20 345 4 33 86 113 143 161 159 147 139 271 301 308 312 321 322 330
249 256 260 270 285 299 313 326 332 334 332 335 342 355 6 5 18 34 36 30 22 17 13 353 338 337 344 303 313 119 145 157 164 169 195 256 262 219 227 293 306 331 326
250 255 262 269 277 287 301 311 317 317 319 325 336 349 349 355 16 21 19 16 360 347 341 334 325 319 323 246 286 261 174 168 176 196 220 196 187 205 286 271 292 323 321
254 258 262 268 273 282 292 300 304 306 311 318 328 337 340 344 355 4 1 352 349 340 333 330 315 299 292 281 266 249 226 235 212 201 180 190 200 179 189 255 271 301 310
258 260 263 265 268 274 281 290 295 301 305 313 322 329 334 335 333 334 336 333 328 329 329 325 316 294 279 269 220 210 245 239 242 240 248 266 287 224 208 278 283 306 318
258 259 259 259 264 268 278 284 292 296 302 307 315 323 329 332 324 315 317 317 319 314 317 319 312 300 255 252 229 217 230 254 265 272 287 288 277 244 248 254 265 281 306
258 262 264 266 266 271 278 283 290 295 302 309 315 325 330 329 328 317 308 310 306 306 307 312 313 293 261 231 238 215 207 225 249 268 285 295 276 238 197 214 237 246 303
267 269 271 271 272 275 279 285 291 299 304 308 315 322 325 328 328 318 309 304 305 302 297 298 305 286 233 238 241 222 214 253 263 267 286 297 291 230 210 222 217 240 273
270 270 274 274 274 277 282 290 297 301 305 310 316 320 327 332 329 320 310 306 303 301 296 295 301 282 262 238 234 245 250 256 266 267 279 274 255 199 187 213 247 282 288
262 269 272 275 277 283 288 295 301 307 312 317 321 324 331 335 331 327 318 313 306 301 293 293 296 296 277 256 236 260 245 255 254 260 254 240 241 275 290 286 281 282 285
252 257 268 273 282 290 298 306 310 319 323 327 330 333 335 335 337 333 329 324 312 303 295 294 298 296 284 287 277 258 260 255 253 257 258 272 273 275 275 285 281 275 288
231 240 260 277 288 300 308 307 317 326 331 336 335 333 330 334 331 328 330 328 319 308 297 301 303 292 291 300 279 267 269 267 266 267 267 266 258 264 269 281 287 280 269
198 217 257 287 302 305 306 316 326 331 338 338 328 320 319 318 320 322 321 327 322 320 306 296 297 304 300 296 295 279 272 270 269 268 267 265 263 266 276 277 281 266 214
193 210 280 299 304 304 313 325 322 339 340 331 314 308 308 307 308 313 317 321 328 327 311 304 301 300 298 289 292 296 291 284 280 273 267 265 264 270 274 279 277 275 273
249 280 296 301 302 309 319 322 330 333 329 322 313 311 308 304 300 303 310 317 318 317 317 312 303 301 302 296 294 295 294 291 285 280 275 269 269 271 277 277 276 277 274
282 299 307 310 317 325 329 329 331 327 324 314 307 306 308 311 310 309 308 306 306 307 309 310 312 308 300 301 302 300 293 291 289 284 279 277 276 276 276 277 279 279 280
301 311 320 326 331 334 334 333 336 332 325 317 307 305 303 305 306 309 310 310 307 307 307 308 308 309 300 300 302 301 301 297 293 287 288 285 280 279 278 279 279 279 277
327 332 340 339 338 336 335 335 337 331 325 317 308 307 306 302 300 302 306 311 313 313 313 312 311 310 303 296 300 299 298 300 301 301 293 289 287 284 283 283 283 281 280
332 335 337 339 343 343 340 338 333 332 329 319 309 307 305 305 306 306 308 310 311 312 314 314 313 311 307 302 301 300 300 300 302 300 297 298 294 287 287 287 284 283 282
333 335 338 339 342 343 341 339 338 334 327 320 312 309 308 307 309 310 311 311 312 310 309 310 309 308 307 307 306 304 303 302 303 304 303 297 295 296 294 289 288 286 284
333 333 338 339 339 339 338 338 336 333 327 322 317 313 310 311 311 311 312 313 312 311 311 310 310 311 309 305 303 303 304 305 305 304 303 302 299 294 295 295 293 292 289
330 331 332 332 334 337 336 335 332 328 326 324 320 318 316 317 316 316 316 316 315 314 312 311 312 311 310 308 305 306 305 303 302 302 302 302 302 299 294 293 295 296 295
324 324 325 329 331 331 330 329 328 326 325 323 322 321 320 320 320 319 318 317 316 315 315 315 313 311 308 306 308 307 305 304 304 304 303 301 300 301 301 298 296 293 294